Content
SEND FEEDBACK

Daily
Averages
Monthly
Summary
United States of America

WILMINGTON, NORTH CAROLINA


Home > North America > United States > North Carolina
Elevation: 72 feet     Latitude: 34 16N     Longitude: 077 54W

WEATHER
 
SELECT A DAY
Number of Records: 208,807;   Date Range: 1/1/95 - 7/29/14
 
SHARE

PRINT THIS DATA

[ ← Previous Day ]
WEATHER ALMANAC - APRIL 25, 2013
[ Next Day → ]
[ °C ]   °F
Weather ElementAverageHighLow
Temperature63.3 °F73 °F (12:53 pm)53.1 °F (11:53 pm)
Dewpoint57 °F61 °F (3:53 am)50 °F (11:53 pm)
Humidity80.5 %90 % (3:53 am)59 % (12:53 pm)
Barometer30.18 in30.27 in (9:53 pm)30.07 in (2:53 am)
Wind Speed7.4 mph12.7 mph (3:53 pm)
Wind Gust20.7 mph (3:53 pm)
Weather ElementAverage
Visibility9.8 mi
Wind DirectionSSE (157.2 °)

Weather ElementTotal
Precipitation0.04 in
Heating Degree Days2 (Base 65)
Growing Degree Days13.1 (Base 50)
Averaged from 25 records on April 25, 2013
WEATHER CONDITIONS BREAKOUT
WIND DIRECTION BREAKOUT
WEATHER BY HOUR - APRIL 25, 2013
[ °C ]   °F
Local TimeTemperatureDewpointHumidityBarometerVisibilityWind DirectionWind SpeedGust SpeedPrecipitationEventsConditions
1:53 AM64.9 °F60.1 °F84 %30.08 in10.0 miSSW (210°)8.1 mphClear
2:53 AM64.9 °F60.1 °F84 %30.07 in10.0 miSSW (210°)9.2 mphClear
3:53 AM64.0 °F61.0 °F90 %30.09 in10.0 miSW (220°)6.9 mphClear
4:53 AM64.9 °F61.0 °F87 %30.10 in10.0 miSW (220°)5.8 mphOvercast
5:53 AM64.9 °F61.0 °F87 %30.12 in10.0 miSW (230°)5.8 mphOvercast
6:53 AM64.0 °F61.0 °F90 %30.13 in10.0 miSSW (210°)4.6 mphOvercast
7:53 AM66.0 °F61.0 °F84 %30.15 in10.0 miWest (270°)4.6 mphOvercast
8:53 AM66.0 °F60.1 °F81 %30.17 in10.0 miWNW (300°)4.6 mphOvercast
9:53 AM68.0 °F60.1 °F76 %30.17 in10.0 miNW (310°)6.9 mphMostly Cloudy
10:53 AM69.1 °F59.0 °F70 %30.18 in10.0 miNorth (350°)10.4 mphOvercast
11:53 AM71.1 °F59.0 °F66 %30.18 in10.0 miNNW (340°)6.9 mphOvercast
12:53 PM73.0 °F57.9 °F59 %30.18 in10.0 miNNE (20°)8.1 mphMostly Cloudy
1:53 PM72.0 °F59.0 °F64 %30.17 in10.0 miESE (110°)9.2 mphMostly Cloudy
2:53 PM70.0 °F55.9 °F61 %30.18 in10.0 miEast (100°)8.1 mphMostly Cloudy
3:53 PM63.0 °F55.0 °F75 %30.19 in10.0 miEast (80°)12.7 mph20.7 mphOvercast
4:53 PM60.1 °F55.0 °F83 %30.19 in5.0 miEast (80°)5.8 mph0.01 inRainRain
5:30 PM59.0 °F55.4 °F88 %30.20 in10.0 miEast (90°)8.1 mph16.1 mph0.01 inOvercast
5:46 PM59.0 °F55.4 °F88 %30.21 in10.0 miEast (90°)10.4 mph0.01 inOvercast
5:53 PM59.0 °F55.0 °F87 %30.21 in10.0 miEast (90°)8.1 mph0.01 inOvercast
6:53 PM59.0 °F54.0 °F83 %30.22 in10.0 miEast (90°)9.2 mphOvercast
7:53 PM57.9 °F53.1 °F84 %30.22 in10.0 miEast (90°)8.1 mphMostly Cloudy
8:53 PM57.0 °F52.0 °F83 %30.25 in10.0 miENE (60°)5.8 mphPartly Cloudy
9:53 PM57.0 °F52.0 °F83 %30.27 in10.0 miEast (80°)5.8 mphScattered Clouds
10:53 PM55.0 °F51.1 °F86 %30.27 in10.0 miNE (40°)6.9 mphClear
11:53 PM53.1 °F50.0 °F89 %30.27 in10.0 miNE (40°)4.6 mphClear
Hourly data recorded from KILM, located miles away from Wilmington, North Carolina







STORIES FROM OUR PARTNERS